www.pogodaiklimat.ru

Погода и климат >> Архив погоды >> Индия >> Veraval


ПОГОДА в Veraval

  • Прогноз погоды в Veraval
  • Монитор погоды в Veraval
  • Климат города

АРХИВ ПОГОДЫ в Veraval

Время (UTC), дата Ветер
(напр.,м/с)
 
Видим.   Явления Облачность Т
(С)
Тd
(С)
f
(%)
Тe
(С)
Тes
(С)
Комфортность P
(гПа)
Po
(гПа)
Тmin
(С)
Tmax
(С)
R
(мм)
S
(см)
21 19.03 З 1 4000 м ясно +24.4 +22.6 90 +32 +32 очень
душно
1012.4 1012.0
00 20.03 штиль 0 4000 м 5/5 600 м
[Sc]
+23.2 +21.4 90 +31 +31 очень
душно
1011.7 1012.0
03 20.03 штиль 0 10 км ясно +22.8 +10.5 46 +22 +27 комфорт 1013.1 1013.0 +21.7
06 20.03 З 2 10 км ясно +28.4 0.0 16 +26 +45 жарко 1013.8 1014.0
09 20.03 З 3 10 км ясно +29.2 0.0 15 +27 +41 жарко 1011.7 1012.0
12 20.03 З 2 10 км ясно +28.2 +11.7 36 +26 +28 жарко 1010.6 1011.0 +29.8
15 20.03 штиль 0 4000 м ясно +26.0 +23.1 84 +35 +35 очень
душно
1012.2 1012.0
18 20.03 штиль 0 4000 м ясно +24.8 +22.4 87 +32 +32 очень
душно
1013.1 1013.0
21 20.03 штиль 0 4000 м ясно +24.2 +22.4 90 +32 +32 очень
душно
1012.1 1012.0
00 21.03 С 1 4000 м ясно +23.0 +20.5 86 +30 +30 очень
душно
1011.6 1012.0
03 21.03 штиль 0 10 км ясно +23.0 +9.9 43 +22 +27 комфорт 1013.5 1014.0 +21.7
06 21.03 З 1 10 км ясно +30.4 0.0 14 +27 +48 жарко 1014.1 1014.0
09 21.03 З 2 10 км ясно +31.0 0.0 14 +28 +44 жарко 1011.9 1012.0
12 21.03 З 2 10 км ясно +29.6 0.0 15 +27 +29 жарко 1011.2 1011.0 +31.8
15 21.03 СЗ 2 10 км ясно +26.0 +10.9 39 +35 +35 очень
душно
1013.2 1013.0
18 21.03 штиль 0 10 км ясно +25.0 +20.7 77 +31 +31 очень
душно
1014.0 1014.0
21 21.03 штиль 0 4000 м ясно +24.0 +17.6 67 +28 +28 душно 1011.9 1012.0
00 22.03 СЗ 1 4000 м ясно +22.2 +8.3 41 +27 +27 душно 1012.3 1012.0
03 22.03 штиль 0 10 км ясно +23.4 0.0 21 +22 +27 комфорт 1014.4 1014.0 +22.4
06 22.03 З 2 10 км ясно +29.0 0.0 15 +26 +44 жарко 1014.7 1015.0
09 22.03 З 2 10 км ясно +29.0 0.0 15 +26 +44 жарко 1012.0 1012.0
12 22.03 З 2 10 км ясно +28.0 +11.2 35 +26 +28 жарко 1010.1 1010.0 +29.8
15 22.03 ЮЗ 3 4000 м ясно +25.6 +22.0 81 +33 +33 очень
душно
1011.4 1011.0
18 22.03 Ю 1 4000 м ясно +24.0 +21.0 83 +30 +30 очень
душно
1012.8 1013.0
21 22.03 штиль 0 4000 м ясно +22.8 +20.0 84 +29 +29 очень
душно
1011.1 1011.0
00 23.03 СЗ 2 4000 м ясно +21.6 +19.1 86 +27 +29 душно 1010.7 1011.0
03 23.03 З 2 10 км ясно +23.4 +9.4 41 +22 +26 комфорт 1013.2 1013.0 +20.5
06 23.03 З 3 10 км ясно +30.4 0.0 14 +27 +43 жарко 1013.4 1013.0
09 23.03 З 3 10 км ясно +28.4 0.0 16 +26 +41 жарко 1011.1 1011.0
12 23.03 З 3 10 км ясно +27.4 +11.7 38 +25 +27 комфорт 1009.7 1010.0 +30.5
15 23.03 СЗ 1 4000 м ясно +25.8 +23.2 86 +35 +35 очень
душно
1011.1 1011.0
18 23.03 ЮЗ 2 4000 м ясно +25.0 +22.6 87 +33 +33 очень
душно
1012.3 1012.0
21 23.03 штиль 0 4000 м ясно +23.0 +20.5 86 +30 +30 очень
душно
1010.5 1011.0
00 24.03 СЗ 1 4000 м ясно +22.0 +18.2 79 +27 +27 душно 1010.4 1010.0
03 24.03 С 3 10 км ясно +24.0 +8.7 38 +23 +26 комфорт 1012.7 1013.0 +20.8
06 24.03 СЗ 2 10 км ясно +33.0 0.0 12 +30 +49 жарко 1012.5 1013.0
09 24.03 З 3 10 км ясно +29.4 0.0 15 +27 +42 жарко 1010.0 1010.0
12 24.03 З 2 10 км ясно +28.2 +11.4 35 +26 +28 жарко 1009.4 1009.0 +33.6
15 24.03 З 2 4000 м ясно +25.8 +21.6 78 +33 +33 очень
душно
1011.6 1012.0
18 24.03 штиль 0 4000 м ясно +24.0 +18.3 70 +28 +28 душно 1013.1 1013.0
21 24.03 штиль 0 4000 м ясно +22.4 +17.6 74 +27 +27 душно 1011.1 1011.0
00 25.03 штиль 0 4000 м ясно +22.4 +8.7 42 +29 +29 очень
душно
1011.1 1011.0
03 25.03 СЗ 1 10 км ясно +23.8 0.0 21 +23 +27 комфорт 1012.5 1013.0 +20.5
06 25.03 З 3 10 км ясно +31.4 0.0 13 +28 +44 жарко 1013.5 1014.0
09 25.03 З 3 10 км ясно +31.0 0.0 14 +28 +43 жарко 1010.4 1010.0
12 25.03 ЮЗ 2 10 км ясно +28.0 0.0 16 +26 +28 жарко 1009.1 1009.0 +31.4
15 25.03 СЗ 2 4000 м ясно +25.8 +10.8 39 +35 +35 очень
душно
1011.0 1011.0
18 25.03 штиль 0 4000 м ясно +24.8 +21.2 80 +31 +31 очень
душно
1012.3 1012.0
21 25.03 штиль 0 4000 м ясно +23.0 +20.2 84 +30 +30 очень
душно
1011.1 1011.0
00 26.03 штиль 0 4000 м ясно +21.2 +19.3 89 +26 +26 душно 1011.2 1011.0
03 26.03 штиль 0 10 км ясно +23.0 +9.5 42 +22 +27 комфорт 1013.7 1014.0 +21.6
06 26.03 З 3 10 км ясно +29.0 0.0 15 +26 +43 жарко 1014.5 1015.0
09 26.03 З 3 10 км ясно +30.0 0.0 14 +27 +42 жарко 1012.0 1012.0
12 26.03 СЗ 2 10 км ясно +28.8 0.0 15 +26 +29 жарко 1010.2 1010.0 +30.4
15 26.03 З 1 4000 м ясно +27.2 +22.2 74 +35 +35 очень
душно
1011.6 1012.0
18 26.03 СЗ 1 4000 м ясно +26.4 +21.3 74 +34 +34 очень
душно
1012.6 1013.0

 

Местоположение метеостанции Veraval (Gujarat, Индия): широта 20.90 долгота 70.37 высота над уровнем моря 8 м.

В архиве по умолчанию представлена погода в Veraval за последнюю неделю. Архивные данные за месяц целиком и за предыдущие месяцы, начиная с января 2011 года, Вы можете получить, выбрав интересующий диапазон дат из раскрывающегося списка и нажав кнопку "Ввод!".

Внимание! Время в таблицах - всемирное. Для получения местного времени необходимо прибавить поправку, которая в Veraval равна 5.5 ч.

Смотрите также архив погоды в соседних городах и на ближайших метеорологических станциях:

Погода в Diu (Daman and Diu, Индия) (61 км)
Погода в Porbandar (Gujarat, Индия) (111 км)
Погода в Amreli (Gujarat, Индия) (118 км)
Погода в Mahuva (Gujarat, Индия) (148 км)
Погода в Rajkot (Gujarat, Индия) (161 км)
Погода в Dwarka (Gujarat, Индия) (211 км)
Погода в Bhaunagar (Gujarat, Индия) (212 км)
Погода в Okha (Gujarat, Индия) (218 км)
Погода в New Kandla (Gujarat, Индия) (234 км)
Погода в Surendranagar (Gujarat, Индия) (240 км)

Пояснения к столбцам:

Ветер - указаны скорость ветра в м/с - средняя за 10 мин, порывы в срок и между сроками (в фигурных скобках) и направление, откуда дует ветер: С - северный, СВ - северо-восточный, В - восточный, ЮВ - юго-восточный, Ю - южный, ЮЗ - юго-западный, З - западный, СЗ - северо-западный.
Видимость - горизонтальная дальность видимости в метрах или километрах. При видимости от 1 до 10 км при отсутствии осадков обычно наблюдается дымка, при ухудшении видимости до 1 км и менее - туман. В сухую погоду видимость может ухудшаться дымом, пылью или мглою.
Явления - указаны атмосферные явления, наблюдавшиеся в срок или в последний час перед сроком; фигурными скобками обозначены явления, наблюдавшиеся между сроками (за 1-3 часа до срока); квадратными скобками обозначены град или гололедные отложения с указанием их диаметра в мм.
Облачность - указаны через наклонную черту общая и нижняя облачность в баллах и высота нижней границы облаков в метрах; квадратными скобками обозначены формы облаков: Ci - перистые, Cs - перисто-слоистые, Cc - перисто-кучевые, Ac - высококучевые, As - высокослоистые, Sc - слоисто-кучевые, Ns - слоисто-дождевые, Cu - кучевые, Cb - кучево-дождевые. Подробнее классификацию облаков см. в Атласе облаков (PDF).
T - Температура воздуха - температура, измеренная на высоте 2 м над землей.
Td - Температура точки росы - температура, при понижении до которой содержащийся в воздухе водяной пар достигнет насыщения.
f - Относительная влажность воздуха - влажноcть воздуха, измеренная на высоте 2 м над землей.
Te - Эффективная температура - температура, которую ощущает одетый по сезону человек в тени. Характеристика душности погоды. При расчете учитывается влияние влажности воздуха и скорости ветра на теплоощущения человека.
Tes - Эффективная температура на солнце - температура, которую ощущает человек, с поправкой на солнечный нагрев. Характеристика знойности погоды. Зависит от высоты солнца над горизонтом, облачности и скорости ветра. Ночью, в пасмурную погоду, а также при ветре 12 м/с и более поправка равна нулю.
P - Атмосферное давление - приведенное к уровню моря атмосферное давление.
Po - Атмосферное давление - измеренное на уровне метеостанции атмосферное давление.
Tmin - Минимальная температура - минимум температуры воздуха на высоте 2 м над землей.
Tmax - Максимальная температура - максимум температуры воздуха на высоте 2 м над землей.
R - Количество осадков - Количество выпавших осадков, мм. При наведении курсора мыши на число - период времени, за который выпало указанное количество осадков.
S - Снежный покров - Высота снежного покрова, см. При наведении курсора мыши на число - состояние снежного покрова и степень покрытия местности в баллах.